Location: ???????
(54.9996°N, 37.9529°E)
Time: 04:10:32
(UTC+00:00)

Lacrosse 4 Rocket - Pass Details

Date: 14 April 2024
Orbit: 530 x 592 km, 68.0° (Epoch: 23 May)

Event Time Altitude Azimuth Distance (km) Brightness Sun altitude
Exits shadow 00:16:15 12° 286° (WNW) 1,697 3.5 -16.6°
Maximum altitude 00:18:59 21° 333° (NNW) 1,245 3.3 -16.3°
Drops below altitude 10° 00:22:04 10° 24° (NNE) 1,792 5.0 -16.0°
Sets 00:24:41 0° 41° (NE) 2,684 6.7 -15.7°
